Tehachapi, CA

8:05 AM PST on December 13, 2019 (GMT -0800)
Tehachapi Municipal

Weather History for KTSP - October, 2019

Change the Weather History Date:

Saturday, October 12, 2019

  Actual Average Record
Temperature  
Mean Temperature 51 °F -  
Max Temperature 69 °F 71 °F 84 °F (2015)
Min Temperature 33 °F 43 °F 32 °F (2017)
Degree Days  
Heating Degree Days 14    
Growing Degree Days 1 (Base 50)    
Moisture  
Dew Point -3 °F    
Average Humidity 12    
Maximum Humidity 20    
Minimum Humidity 6    
Precipitation  
Precipitation 0.00 in - - ()
Sea Level Pressure  
Sea Level Pressure 30.02 in    
Wind  
Wind Speed 6 mph ()    
Max Wind Speed 15 mph    
Max Gust Speed 21 mph    
Visibility 9.5 miles    
Events      
Averages and records for this station are not official NWS values.
T = Trace of Precipitation, MM = Missing Value Source: Averaged Metar Reports

Daily Weather History Graph

Daily Weather History Graph

Search for Another Location

Airport or City:

Astronomy

Oct. 12, 2019 Rise Set
Actual Time 6:57 AM PDT 6:22 PM PDT
Civil Twilight 6:31 AM PDT 6:48 PM PDT
Nautical Twilight 6:02 AM PDT 7:17 PM PDT
Astronomical Twilight 5:32 AM PDT 7:46 PM PDT
Moon 6:16 PM PDT (10/12) 5:44 AM PDT (10/12)
Length of Visible Light 12h 16m
Length of Day
11h 25m
Waxing Gibbous, 99% of the Moon is Illuminated
Oct 12
Waxing Gibbous
Oct 13
Full
Oct 21
Last Quarter
Oct 27
New
Nov 4
First Quarter

Hourly Weather History & Observations

Time (PDT) Temp. Windchill Dew Point Humidity Pressure Visibility Wind Dir Wind Speed Gust Speed Precip Events Conditions
12:15 AM 35.6 °F 30.7 °F -7.6 °F 16% 30.08 in 10.0 mi ESE 5.8 mph - N/A   Mostly Cloudy
12:35 AM 35.6 °F - -5.8 °F 17% 30.07 in 10.0 mi Calm Calm - N/A   Scattered Clouds
12:55 AM 37.4 °F 32.8 °F -9.4 °F 13% 30.07 in 10.0 mi ESE 5.8 mph - N/A   Partly Cloudy
1:15 AM 37.4 °F 34.9 °F -9.4 °F 13% 30.07 in 10.0 mi East 3.5 mph - N/A   Partly Cloudy
1:35 AM 35.6 °F 29.2 °F -7.6 °F 16% 30.07 in 10.0 mi SE 8.1 mph - N/A   Partly Cloudy
1:55 AM 33.8 °F 29.6 °F -7.6 °F 17% 30.07 in 10.0 mi ESE 4.6 mph - N/A   Scattered Clouds
2:15 AM 35.6 °F - -7.6 °F 16% 30.06 in 10.0 mi Calm Calm - N/A   Partly Cloudy
2:35 AM 35.6 °F 32.8 °F -9.4 °F 14% 30.06 in 10.0 mi ESE 3.5 mph - N/A   Clear
2:55 AM 35.6 °F - -7.6 °F 16% 30.06 in 10.0 mi Calm Calm - N/A   Clear
3:15 AM 35.6 °F 32.8 °F -7.6 °F 16% 30.05 in 10.0 mi ESE 3.5 mph - N/A   Partly Cloudy
3:35 AM 35.6 °F 31.7 °F -7.6 °F 16% 30.04 in 10.0 mi East 4.6 mph - N/A   Clear
3:55 AM 35.6 °F 28.0 °F -5.8 °F 17% 30.03 in 10.0 mi ESE 10.4 mph - N/A   Clear
4:15 AM 37.4 °F 30.3 °F -5.8 °F 16% 30.03 in 10.0 mi ESE 10.4 mph - N/A   Clear
4:35 AM 35.6 °F 28.0 °F -4.0 °F 18% 30.03 in 10.0 mi ESE 10.4 mph - N/A   Clear
4:55 AM 35.6 °F 28.6 °F -4.0 °F 18% 30.03 in 10.0 mi ESE 9.2 mph - N/A   Clear
5:15 AM 35.6 °F 28.0 °F -4.0 °F 18% 30.03 in 10.0 mi ESE 10.4 mph - N/A   Clear
5:35 AM 35.6 °F 28.0 °F -4.0 °F 18% 30.02 in 10.0 mi SE 10.4 mph - N/A   Clear
5:55 AM 37.4 °F 30.8 °F -4.0 °F 17% 30.02 in 10.0 mi ESE 9.2 mph - N/A   Clear
6:15 AM 33.8 °F 27.0 °F -5.8 °F 18% 30.03 in 10.0 mi SE 8.1 mph - N/A   Clear
6:35 AM 33.8 °F 30.8 °F -4.0 °F 20% 30.03 in 10.0 mi ESE 3.5 mph - N/A   Partly Cloudy
6:55 AM 33.8 °F 28.6 °F -4.0 °F 20% 30.03 in 10.0 mi ESE 5.8 mph - N/A   Partly Cloudy
7:15 AM 35.6 °F 32.8 °F -7.6 °F 16% 30.03 in 10.0 mi ESE 3.5 mph - N/A   Clear
7:35 AM 37.4 °F - -5.8 °F 16% 30.03 in 10.0 mi Calm Calm - N/A   Clear
7:55 AM 41.0 °F - -5.8 °F 14% 30.04 in 10.0 mi Calm Calm - N/A   Clear
8:15 AM 44.6 °F 40.2 °F -4.0 °F 13% 30.04 in 10.0 mi SE 8.1 mph - N/A   Clear
8:35 AM 50.0 °F - -2.2 °F 12% 30.04 in 9.0 mi SE 5.8 mph - N/A   Clear
8:55 AM 53.6 °F - -0.4 °F 11% 30.04 in 10.0 mi SE 6.9 mph - N/A   Clear
9:15 AM 57.2 °F - -2.2 °F 9% 30.05 in 9.0 mi ESE 6.9 mph - N/A   Clear
9:35 AM 59.0 °F - -7.6 °F 6% 30.05 in 9.0 mi ESE 10.4 mph - N/A   Clear
9:55 AM 62.6 °F - -7.6 °F 6% 30.05 in 9.0 mi East 11.5 mph - N/A   Clear
10:15 AM 64.4 °F - -5.8 °F 6% 30.05 in 9.0 mi SE 13.8 mph 18.4 mph N/A   Clear
10:35 AM 64.4 °F - -4.0 °F 6% 30.05 in 9.0 mi SE 13.8 mph 17.3 mph N/A   Clear
10:55 AM 64.4 °F - -2.2 °F 7% 30.05 in 10.0 mi ESE 15.0 mph - N/A   Clear
11:15 AM 66.2 °F - -2.2 °F 6% 30.05 in 10.0 mi SE 10.4 mph - N/A   Clear
11:35 AM 66.2 °F - -2.2 °F 6% 30.04 in 10.0 mi ESE 13.8 mph 17.3 mph N/A   Clear
11:55 AM 66.2 °F - -0.4 °F 7% 30.04 in 8.0 mi ESE 12.7 mph 17.3 mph N/A   Clear
12:15 PM 66.2 °F - -0.4 °F 7% 30.04 in 8.0 mi SE 12.7 mph 18.4 mph N/A   Clear
12:35 PM 68.0 °F - -0.4 °F 7% 30.03 in 7.0 mi SE 11.5 mph - N/A   Clear
12:55 PM 68.0 °F - -0.4 °F 7% 30.02 in 7.0 mi SE 12.7 mph - N/A   Clear
1:15 PM 68.0 °F - -0.4 °F 7% 30.01 in 7.0 mi East 11.5 mph 18.4 mph N/A   Clear
1:35 PM 68.0 °F - -0.4 °F 7% 30.01 in 9.0 mi SE 10.4 mph 17.3 mph N/A   Clear
1:55 PM 69.8 °F - -0.4 °F 6% 30.00 in 8.0 mi SE 10.4 mph - N/A   Clear
2:15 PM 68.0 °F - -0.4 °F 7% 30.00 in 7.0 mi SE 10.4 mph 18.4 mph N/A   Clear
2:35 PM 68.0 °F - 1.4 °F 7% 29.99 in 7.0 mi SE 13.8 mph 17.3 mph N/A   Clear
2:55 PM 68.0 °F - -0.4 °F 7% 29.99 in 5.0 mi SSE 11.5 mph 18.4 mph N/A   Haze
3:15 PM 68.0 °F - -0.4 °F 7% 30.00 in 8.0 mi SE 11.5 mph 20.7 mph N/A   Clear
3:35 PM 68.0 °F - -0.4 °F 7% 29.99 in 7.0 mi SE 13.8 mph - N/A   Clear
3:55 PM 68.0 °F - -0.4 °F 7% 29.99 in 10.0 mi SSE 10.4 mph - N/A   Clear
4:15 PM 68.0 °F - -0.4 °F 7% 29.99 in 9.0 mi SE 8.1 mph 16.1 mph N/A   Clear
4:35 PM 68.0 °F - -0.4 °F 7% 29.98 in 10.0 mi SE 11.5 mph - N/A   Clear
4:55 PM 68.0 °F - -0.4 °F 7% 29.98 in 10.0 mi SE 8.1 mph - N/A   Clear
5:15 PM 66.2 °F - -0.4 °F 7% 29.98 in 10.0 mi SE 9.2 mph - N/A   Clear
5:35 PM 66.2 °F - -0.4 °F 7% 29.98 in 10.0 mi ESE 8.1 mph - N/A   Clear
5:55 PM 64.4 °F - -0.4 °F 7% 29.97 in 10.0 mi ESE 8.1 mph - N/A   Clear
6:15 PM 62.6 °F - -2.2 °F 7% 29.97 in 10.0 mi East 6.9 mph - N/A   Clear
6:35 PM 55.4 °F - -0.4 °F 10% 29.98 in 10.0 mi ESE 6.9 mph - N/A   Clear
6:55 PM 55.4 °F - -0.4 °F 10% 29.98 in 10.0 mi ESE 6.9 mph - N/A   Clear
7:15 PM 57.2 °F - -2.2 °F 9% 29.98 in 10.0 mi ESE 9.2 mph - N/A   Clear
7:35 PM 53.6 °F - -2.2 °F 10% 29.99 in 10.0 mi ESE 10.4 mph - N/A   Clear
7:55 PM 53.6 °F - -2.2 °F 10% 29.99 in 10.0 mi ESE 3.5 mph - N/A   Clear
8:15 PM 48.2 °F - -0.4 °F 13% 29.99 in 10.0 mi Calm Calm - N/A   Clear
8:35 PM 46.4 °F - -0.4 °F 14% 30.00 in 10.0 mi Calm Calm - N/A   Clear
8:55 PM 44.6 °F 43.1 °F -0.4 °F 15% 30.00 in 10.0 mi ESE 3.5 mph - N/A   Clear
9:15 PM 44.6 °F 42.2 °F -0.4 °F 15% 30.00 in 10.0 mi SE 4.6 mph - N/A   Clear
9:35 PM 42.8 °F 40.1 °F -2.2 °F 15% 30.00 in 10.0 mi East 4.6 mph - N/A   Clear
9:55 PM 41.0 °F - -0.4 °F 18% 30.00 in 10.0 mi Calm Calm - N/A   Clear
10:35 PM 39.2 °F 37.0 °F -0.4 °F 19% 30.00 in 10.0 mi East 3.5 mph - N/A   Clear
10:55 PM 37.4 °F - -2.2 °F 19% 30.00 in 10.0 mi Calm Calm - N/A   Clear
11:15 PM 37.4 °F - -2.2 °F 19% 29.99 in 10.0 mi Calm Calm - N/A   Clear
11:35 PM 37.4 °F 33.8 °F -0.4 °F 20% 29.99 in 10.0 mi ESE 4.6 mph - N/A   Clear
11:55 PM 37.4 °F - -2.2 °F 19% 29.99 in 10.0 mi Calm Calm - N/A   Clear